Flag for U.S.A. Weather past 2 weeks in Jackson, Mississippi, U.S.A.

Now
58 °F

Clear.


Feels Like: 58 °F
Forecast: 56 / 82 °F
Wind: No wind

Location: Hawkins Field

Current Time: Sep 23, 2014 at 7:55:01 AM

Latest Report: Sep 23, 2014 at 6:53 AM


Visibility: 10 mi

Pressure: 30.13 "Hg

Humidity: 78%

Dew point: 51 °F

Location of JacksonLocation

Historic Weather in Jackson — Graph

°F

Jackson temperature yesterday

Maximum temperature yesterday: 84 °F (at 1:53 PM)
Minimum temperature yesterday: 67 °F (at 11:53 PM)
Average temperature yesterday: 76 °F

Past Weeks' High & Low Weather Summary

 TemperatureHumidityPressure
High94 °F (Sep 9, 3:53 PM)93% (Sep 13, 2:53 AM)30.19 "Hg (Sep 13, 2:53 AM)
Low59 °F (Sep 23, 5:53 AM)31% (Sep 22, 2:53 PM)29.85 "Hg (Sep 18, 3:53 PM)
Average79 °F72%30.00 "Hg
* Reported Sep 8 5:53 AM — Sep 23 5:53 AM, Jackson, Weather by CustomWeather, © 2014

Note: Actual official high and low records may vary slightly from our data, if they occured in-between our weather recording intervals... More about our weather records

Advertising

Jackson weather history for previous 24 hours

 ConditionsComfort  
Time TempWeatherWind HumidityBarometerVisibility
5:53 AM
Sep 23
59 °FClear.3 mph78%30.13 "Hg10 mi
4:53 AM60 °FClear.No wind75%30.12 "Hg10 mi
3:53 AM61 °FClear.No wind72%30.11 "Hg10 mi
2:53 AM64 °FClear.3 mph65%30.11 "Hg10 mi
1:53 AM65 °FClear.8 mph66%30.11 "Hg10 mi
12:53 AM66 °FClear.5 mph65%30.11 "Hg10 mi
11:53 PM
Sep 22
67 °FClear.7 mph63%30.11 "Hg10 mi
10:53 PM68 °FClear.6 mph61%30.12 "Hg10 mi
9:53 PM70 °FClear.5 mph57%30.11 "Hg10 mi
8:53 PM71 °FClear.6 mph53%30.09 "Hg10 mi
7:53 PM74 °FSunny.3 mph46%30.07 "Hg10 mi
6:53 PM77 °FSunny.3 mph42%30.06 "Hg10 mi
5:53 PM81 °FSunny.8 mph35%30.05 "Hg10 mi
4:53 PM83 °FSunny.9 mph33%30.04 "Hg10 mi
3:53 PM84 °FSunny.8 mph32%30.05 "Hg10 mi
2:53 PM83 °FSunny.10 mph31%30.06 "Hg10 mi
1:53 PM84 °FSunny.8 mph32%30.07 "Hg10 mi
12:53 PM83 °FSunny.10 mph33%30.09 "Hg10 mi
11:53 AM82 °FSunny.10 mph37%30.10 "Hg10 mi
10:53 AM79 °FSunny.9 mph45%30.11 "Hg10 mi
9:53 AM76 °FPassing clouds.8 mph52%30.11 "Hg10 mi
8:53 AM73 °FBroken clouds.9 mph57%30.09 "Hg10 mi
7:53 AM72 °FPartly sunny.5 mph66%30.08 "Hg10 mi
Weather by CustomWeather, © 2014

See weather overviewHow to use our weather pages